Weather in Rakinskaya

Russia / Komi Republic     60°39′10″N   49°12′55″E
temp.,
°C
wind,
m/s
gust,
m/s
humid.,
%
clouds,
%
prec.,
mm/h
press.,
hPa
HPBL,
m
27 september, mon
mon2700:00+6ene4995100 0.5 1018731
03:00+5ene4996100 0.8 1020629
06:00+4ene4996100 0.4 1023655
09:00+4ene4992100 0.4 1025629
12:00+7e4771100 0.0 1026847
15:00+8e366196 0.0 1028969
18:00+4ene277894 0.0 1030167
21:00+1e288518 0.0 1031165
28 september, tue
tue2800:00+1e228795 0.0 103221
03:000ene119268 0.0 103311
06:00−1ne119384 0.0 103310
09:00+5ne126522 0.0 1033337
12:00+8nnw124913 0.0 1032813
15:00+9nnw23496 0.0 10321012
18:00+4nnw227697 0.0 103232
21:00+4n2281100 0.0 103228
29 september, wed
wed2900:00+5nw1281100 0.0 103266
03:00+5wnw2595100 0.1 1032164
06:00+5nw2595100 0.0 1032201
09:00+6nnw1492100 0.0 1032223
12:00+8nnw2383100 0.0 1032402
15:00+9nnw2377100 0.1 1032508
18:00+6nw1191100 0.0 103212
21:00+5wnw119353 0.0 103110
30 september, thu
thu3000:00+4w2294100 0.1 103126
03:00+5wsw2592100 0.6 1031146
06:00+5w289879 0.0 1030232
09:00+8wnw388283 0.0 1029431
12:00+11nw46635 0.0 1028765
15:00+12nw37645 0.0 1028881
18:00+7nw289054 0.0 1028163
21:00+6nnw289650 0.0 1029184
1 october, fri
fri100:00+6nw2695100 0.0 1029149
03:00+7nw269199 0.0 1029178
06:00+6nw2691100 0.0 1029221
09:00+8nnw248399 0.0 1030319
12:00+10nnw2474100 0.0 1030652
15:00+10nnw2475100 0.0 1030448
18:00+8nnw1384100 0.0 103084
21:00+8nnw118597 0.0 103126